EW9807 Weather Reports


Display with metric or nautical units.
time (UTC)temp
F
wind
direction
speed
MPH
gust
MPH
rain 1hr
in
rain 24hr
in
rain mn
in
humidity
%
barometer
mb
20260505002550 72 167 0.0 1.0 0.00 0.00 0.00 44 1014.3
20260505002059 73 167 0.0 2.0 0.00 0.00 0.00 44 1014.2
20260505001607 73 167 0.0 2.0 0.00 0.00 0.00 43 1014.3
20260505001053 73 166 1.0 2.0 0.00 0.00 0.00 44 1014.2
20260505000559 73 166 1.0 2.0 0.00 0.00 0.00 43 1014.2
20260504235558 74 180 0.0 3.0 0.00 0.00 0.00 41 1014.1
20260504235048 74 180 1.0 3.0 0.00 0.00 0.00 41 1014.1
20260504234552 74 143 1.0 3.0 0.00 0.00 0.00 41 1014.1
20260504234102 74 195 0.0 4.0 0.00 0.00 0.00 41 1014.1
20260504233553 75 184 1.0 5.0 0.00 0.00 0.00 40 1014.2
20260504233101 75 133 0.0 5.0 0.00 0.00 0.00 40 1014.2
20260504232545 75 131 1.0 5.0 0.00 0.00 0.00 39 1014.2
20260504232051 75 109 0.0 6.0 0.00 0.00 0.00 39 1014.2
20260504230602 75 188 2.0 5.0 0.00 0.00 0.00 39 1014.4
20260504230051 75 122 1.0 5.0 0.00 0.00 0.00 39 1014.4
20260504225555 75 195 2.0 5.0 0.00 0.00 0.00 38 1014.3
20260504225100 76 228 1.0 5.0 0.00 0.00 0.00 38 1014.3
20260504224547 76 144 1.0 8.0 0.00 0.00 0.00 39 1014.4
20260504224059 75 132 3.0 8.0 0.00 0.00 0.00 39 1014.4
20260504223546 76 234 2.0 5.0 0.00 0.00 0.00 38 1014.3
20260504223100 76 113 1.0 5.0 0.00 0.00 0.00 37 1014.4
20260504222058 76 194 3.0 5.0 0.00 0.00 0.00 38 1014.4
20260504221544 76 141 2.0 6.0 0.00 0.00 0.00 39 1014.4
20260504221057 76 120 2.0 6.0 0.00 0.00 0.00 38 1014.4
20260504220604 76 149 2.0 5.0 0.00 0.00 0.00 41 1014.4
20260504220057 76 188 2.0 5.0 0.00 0.00 0.00 38 1014.4
20260504215602 76 186 2.0 5.0 0.00 0.00 0.00 40 1014.4
20260504215052 76 105 1.0 8.0 0.00 0.00 0.00 38 1014.3
20260504214552 76 145 1.0 8.0 0.00 0.00 0.00 38 1014.2
20260504214100 76 188 2.0 6.0 0.00 0.00 0.00 37 1014.3
20260504213547 76 217 4.0 6.0 0.00 0.00 0.00 37 1014.3
20260504213054 75 131 3.0 6.0 0.00 0.00 0.00 37 1014.3
20260504212519 75 189 2.0 4.0 0.00 0.00 0.00 36 1013.8
20260504212047 76 154 2.0 5.0 0.00 0.00 0.00 36 1014.2
20260504211558 76 119 2.0 5.0 0.00 0.00 0.00 37 1014.2
20260504211048 76 144 1.0 6.0 0.00 0.00 0.00 37 1014.3
20260504210559 76 148 1.0 6.0 0.00 0.00 0.00 37 1014.3
20260504210116 76 186 2.0 7.0 0.00 0.00 0.00 36 1014.4
20260504205600 76 162 3.0 7.0 0.00 0.00 0.00 36 1014.5
20260504204552 76 181 2.0 5.0 0.00 0.00 0.00 39 1014.6
20260504204101 76 201 2.0 6.0 0.00 0.00 0.00 38 1014.6
20260504203547 77 220 2.0 6.0 0.00 0.00 0.00 37 1014.6
20260504203056 76 136 2.0 5.0 0.00 0.00 0.00 36 1014.6
20260504202602 76 192 3.0 6.0 0.00 0.00 0.00 37 1014.7
20260504202054 77 195 2.0 8.0 0.00 0.00 0.00 35 1014.8
20260504201542 77 242 2.0 10.0 0.00 0.00 0.00 34 1014.7
20260504201055 77 162 2.0 10.0 0.00 0.00 0.00 38 1014.8
20260504200546 76 200 2.0 5.0 0.00 0.00 0.00 35 1014.8
20260504200051 76 188 1.0 5.0 0.00 0.00 0.00 36 1014.9
20260504195558 76 47 1.0 7.0 0.00 0.00 0.00 36 1014.9
20260504195051 77 181 5.0 7.0 0.00 0.00 0.00 33 1015.0
20260504194558 77 206 2.0 8.0 0.00 0.00 0.00 33 1015.0
20260504194047 78 131 3.0 8.0 0.00 0.00 0.00 31 1015.1
20260504193052 77 217 2.0 5.0 0.00 0.00 0.00 36 1015.3
20260504192555 77 162 3.0 8.0 0.00 0.00 0.00 39 1015.4
20260504192103 77 186 3.0 8.0 0.00 0.00 0.00 40 1015.4
20260504191555 76 167 2.0 3.0 0.00 0.00 0.00 37 1015.6
20260504191106 77 227 1.0 5.0 0.00 0.00 0.00 37 1015.6
20260504190553 77 189 3.0 5.0 0.00 0.00 0.00 40 1015.6
20260504185549 77 255 4.0 8.0 0.00 0.00 0.00 37 1015.8
20260504185057 77 229 3.0 8.0 0.00 0.00 0.00 40 1015.8
20260504184601 76 101 1.0 7.0 0.00 0.00 0.00 38 1015.9
20260504184050 76 214 2.0 5.0 0.00 0.00 0.00 38 1016.0
20260504183602 77 209 2.0 7.0 0.00 0.00 0.00 39 1016.0
20260504182602 76 176 2.0 4.0 0.00 0.00 0.00 37 1016.2
20260504182052 76 148 0.0 5.0 0.00 0.00 0.00 37 1016.2
20260504181544 77 167 2.0 8.0 0.00 0.00 0.00 35 1016.3
20260504181055 77 189 4.0 8.0 0.00 0.00 0.00 35 1016.4
20260504180602 77 152 4.0 7.0 0.00 0.00 0.00 39 1016.4
20260504180109 76 202 2.0 7.0 0.00 0.00 0.00 39 1016.4
20260504175552 75 172 1.0 7.0 0.00 0.00 0.00 38 1016.5
20260504175103 75 82 2.0 6.0 0.00 0.00 0.00 39 1016.5
20260504174553 76 196 3.0 7.0 0.00 0.00 0.00 41 1016.7
20260504173555 76 155 2.0 6.0 0.00 0.00 0.00 42 1016.8
20260504173101 75 169 2.0 6.0 0.00 0.00 0.00 43 1016.8
20260504172549 75 202 0.0 6.0 0.00 0.00 0.00 41 1016.9
20260504172100 74 219 3.0 6.0 0.00 0.00 0.00 41 1017.0
20260504171551 73 46 1.0 3.0 0.00 0.00 0.00 41 1017.1
20260504171058 73 47 2.0 4.0 0.00 0.00 0.00 42 1017.1
20260504170550 74 130 2.0 4.0 0.00 0.00 0.00 42 1017.1
20260504170504 73 187 2.0 4.0 0.00 0.00 0.00 42 1016.7
20260504170134 74 288 1.0 5.0 0.00 0.00 0.00 42 1017.1
20260504151052 69 195 4.0 8.0 0.00 0.00 0.00 46 1018.3
20260504150543 69 176 1.0 4.0 0.00 0.00 0.00 48 1018.2
20260504141054 63 165 3.0 5.0 0.00 0.00 0.00 64 1018.6
20260504140546 62 212 1.0 5.0 0.00 0.00 0.00 66 1018.7
20260504130545 54 184 1.0 2.0 0.00 0.00 0.00 78 1018.5
20260504110553 44 295 0.0 0.0 0.00 0.00 0.00 93 1017.8
20260504110508 44 295 0.0 0.0 0.00 0.00 0.00 93 1017.6
20260504110135 44 295 0.0 0.0 0.00 0.00 0.00 93 1017.7
20260504100555 45 169 0.0 0.0 0.00 0.00 0.00 93 1017.7
20260504081600 46 169 0.0 0.0 0.00 0.00 0.00 90 1018.0
20260504050554 50 169 0.0 0.0 0.00 0.00 0.00 84 1018.6
20260504045545 50 169 0.0 0.0 0.00 0.00 0.00 85 1018.8
20260504045057 50 169 0.0 0.0 0.00 0.00 0.00 84 1018.8
20260504044545 50 169 0.0 0.0 0.00 0.00 0.00 83 1018.9
20260504043605 51 169 0.0 0.0 0.00 0.00 0.00 82 1018.8
20260504043052 51 169 0.0 0.0 0.00 0.00 0.00 81 1018.7
20260504042600 51 169 0.0 1.0 0.00 0.00 0.00 81 1018.8
20260504042049 51 169 0.0 1.0 0.00 0.00 0.00 80 1018.8
20260504041601 51 169 0.0 0.0 0.00 0.00 0.00 78 1018.8
20260504041053 52 169 0.0 0.0 0.00 0.00 0.00 79 1018.8
20260504040558 52 169 0.0 0.0 0.00 0.00 0.00 78 1018.7
20260504040116 52 169 0.0 0.0 0.00 0.00 0.00 78 1018.7
20260504035555 52 169 0.0 0.0 0.00 0.00 0.00 79 1018.7
20260504034048 53 169 0.0 0.0 0.00 0.00 0.00 77 1018.8
20260504033600 53 169 0.0 0.0 0.00 0.00 0.00 77 1018.8
20260504032557 53 169 0.0 0.0 0.00 0.00 0.00 75 1018.9
20260504032103 53 169 0.0 0.0 0.00 0.00 0.00 74 1018.8
20260504031554 54 169 0.0 0.0 0.00 0.00 0.00 74 1018.9
20260504031101 54 169 0.0 0.0 0.00 0.00 0.00 74 1018.7
20260504030547 54 169 0.0 0.0 0.00 0.00 0.00 74 1018.7
20260504025058 54 169 0.0 0.0 0.00 0.00 0.00 71 1018.7
20260504024549 54 169 0.0 0.0 0.00 0.00 0.00 72 1018.7
20260504024052 54 169 0.0 0.0 0.00 0.00 0.00 72 1018.7
20260504023601 55 169 0.0 0.0 0.00 0.00 0.00 71 1018.6
20260504023050 55 169 0.0 0.0 0.00 0.00 0.00 71 1018.5
20260504022558 55 169 0.0 0.0 0.00 0.00 0.00 73 1018.4
20260504021104 56 169 0.0 0.0 0.00 0.00 0.00 72 1018.2
20260504020553 56 169 0.0 0.0 0.00 0.00 0.00 72 1018.1
20260504020101 56 169 0.0 0.0 0.00 0.00 0.00 70 1018.0
20260504020001 56 169 0.0 0.0 0.00 0.00 0.00 70 1017.8
20260504015607 56 169 0.0 0.0 0.00 0.00 0.00 70 1018.0
20260504015054 57 169 0.0 0.0 0.00 0.00 0.00 68 1017.8
20260504015009 56 169 0.0 0.0 0.00 0.00 0.00 68 1017.6
20260504014053 57 169 0.0 0.0 0.00 0.00 0.00 65 1017.8
20260504013601 57 169 0.0 0.0 0.00 0.00 0.00 65 1017.7
20260504013051 58 169 0.0 0.0 0.00 0.00 0.00 62 1017.6
20260504012551 58 169 0.0 0.0 0.00 0.00 0.00 62 1017.5
20260504012102 59 169 0.0 0.0 0.00 0.00 0.00 63 1017.4
20260504011058 59 169 0.0 0.0 0.00 0.00 0.00 61 1017.3
20260504010546 59 169 0.0 0.0 0.00 0.00 0.00 60 1017.3
20260504010057 60 169 0.0 0.0 0.00 0.00 0.00 59 1017.2
20260504005601 60 169 0.0 0.0 0.00 0.00 0.00 60 1017.3
20260504004558 61 169 0.0 0.0 0.00 0.00 0.00 55 1017.2
20260504004045 62 169 0.0 0.0 0.00 0.00 0.00 56 1017.1
20260504003556 62 169 0.0 1.0 0.00 0.00 0.00 53 1017.1